Location: Santa Fe
(35.6870°N, 105.9370°W)
Time: 17:40:56
(UTC-06:00)

Amateur Radio Satellites - All Passes

Search period start: 29 July 2016 17:10
Search period end: 30 July 2016 17:10
Location: Santa Fe, 35.6870°N, 105.9370°W

Satellite Date Start Highest point End Downlink Frequencies (MHz)
Time Altitude Azimuth
KKS-1 29 Jul 17:11:18 17:15:47 70° 285° (WNW) 17:20:14 437.445
NOAA 15 29 Jul 17:12:50 17:16:12 18° 64° (ENE) 17:19:34 137.62
BRITE-PL 29 Jul 17:29:16 17:32:32 23° 70° (ENE) 17:35:51 437.365/2234.400
HORYU 2 29 Jul 17:30:08 17:34:35 67° 258° (WSW) 17:39:04 437.375
PHONESAT 2.4 29 Jul 17:30:41 17:33:37 39° 349° (N) 17:36:34 2401.200-2431.200
AO-7 29 Jul 17:34:07 17:40:09 22° 266° (W) 17:46:13 29.400- 29.500
Cosmos 2499 29 Jul 17:41:27 17:48:08 23° 290° (WNW) 17:54:44 435.465 / 435.565
STARS 29 Jul 17:42:31 17:46:56 64° 285° (WNW) 17:51:18 437.465
LilacSat-2 29 Jul 17:44:12 17:46:50 18° 69° (ENE) 17:49:27 437.200
RS-15 29 Jul 17:45:00 17:55:59 40° 254° (WSW) 18:06:47 29.354- 29.394
PCSat 29 Jul 17:50:34 17:54:02 17° 105° (ESE) 17:57:32 145.827
BEESAT 3 29 Jul 17:55:19 17:59:10 66° 117° (ESE) 18:03:05 437.485
CUBESAT XI-V 29 Jul 17:55:25 17:59:48 41° 99° (E) 18:04:10 437.345
NOAA 18 29 Jul 17:58:58 18:04:01 38° 69° (ENE) 18:09:06 137.9125
MOZHAYETS 4 29 Jul 18:07:02 18:09:52 17° 293° (WNW) 18:12:43
BEESAT 2 29 Jul 18:07:10 18:10:54 43° 115° (ESE) 18:14:41 435.950
Cubesat XI-IV 29 Jul 18:16:31 18:21:44 54° 73° (ENE) 18:26:59 437.490
GOMX 1 29 Jul 18:16:40 18:20:26 34° 72° (ENE) 18:24:22 467.674
CUTE-I 29 Jul 18:39:05 18:44:28 89° 90° (E) 18:49:53 437.470
NOAA 15 29 Jul 18:50:26 18:55:32 52° 260° (W) 19:00:38 137.62
PHONESAT 2.4 29 Jul 19:07:39 19:10:30 33° 6° (N) 19:13:20 2401.200-2431.200
BRITE-PL 29 Jul 19:07:44 19:10:58 22° 265° (W) 19:14:14 437.365/2234.400
YUBILEINY 29 Jul 19:11:32 19:14:39 12° 62° (ENE) 19:17:46 435.215
O/OREOS (USA 219) 29 Jul 19:15:31 19:17:41 13° 99° (E) 19:19:50 437.305
LilacSat-2 29 Jul 19:17:35 19:20:54 27° 264° (W) 19:24:14 437.200
CINEMA 3 29 Jul 19:24:10 19:27:51 24° 69° (ENE) 19:31:39 145.822/145.860
PCSat 29 Jul 19:31:40 19:36:57 54° 300° (WNW) 19:42:16 145.827
DOVE 4 29 Jul 19:32:35 19:36:50 71° 258° (WSW) 19:41:22 437.250
CUBESAT XI-V 29 Jul 19:33:54 19:36:49 17° 293° (WNW) 19:39:45 437.345
BEESAT 3 29 Jul 19:36:12 19:37:16 11° 314° (NW) 19:38:20 437.485
NOAA 18 29 Jul 19:40:14 19:44:42 25° 264° (W) 19:49:13 137.9125
BEESAT 2 29 Jul 19:46:37 19:48:56 15° 311° (NW) 19:51:18 435.950
CANX-2 29 Jul 19:53:11 19:57:15 45° 74° (ENE) 20:01:20 2200.000
HO-68 29 Jul 19:55:56 20:02:59 62° 71° (ENE) 20:10:05 435.675
GOMX 1 29 Jul 19:56:09 19:58:42 16° 268° (W) 20:01:17 467.674
ISS 29 Jul 19:58:21 20:01:28 46° 135° (SE) 20:04:36 145.825
Cubesat XI-IV 29 Jul 19:58:46 20:02:05 16° 267° (W) 20:05:24 437.490
CUTE 1.7 + AOD 2 29 Jul 20:05:55 20:10:06 55° 75° (ENE) 20:14:16 437.475
CUBEBUG 2 29 Jul 20:12:06 20:15:47 24° 69° (ENE) 20:19:32 437.445
Oscar 11 29 Jul 20:17:10 20:18:02 10° 65° (ENE) 20:18:53 145.826/435.025
Cosmos 2491 29 Jul 20:30:18 20:36:49 24° 82° (E) 20:43:20 435.465 / 435.565
AIST 2 29 Jul 20:31:27 20:35:31 76° 118° (ESE) 20:39:39 435.215
STRAND 1 29 Jul 20:32:47 20:37:54 79° 285° (WNW) 20:42:59 437.568
SEEDS 29 Jul 20:39:43 20:43:56 82° 256° (WSW) 20:48:10 437.485
PHONESAT 2.4 29 Jul 20:44:07 20:47:12 88° 16° (NNE) 20:50:17 2401.200-2431.200
COMPASS 1 29 Jul 20:46:05 20:50:15 80° 77° (ENE) 20:54:26 437.405
O/OREOS (USA 219) 29 Jul 20:52:21 20:56:37 45° 293° (WNW) 21:00:55 437.305
Cosmos 2504 29 Jul 20:59:56 21:05:31 20° 68° (ENE) 21:10:49 435.465 / 435.565
CINEMA 3 29 Jul 21:00:57 21:04:49 28° 265° (W) 21:08:53 145.822/145.860
YUBILEINY 29 Jul 21:04:12 21:13:04 73° 82° (E) 21:21:49 435.215
PRISM 29 Jul 21:10:04 21:13:40 29° 98° (E) 21:17:17 437.425
FUNcube-1 29 Jul 21:10:49 21:15:04 42° 73° (ENE) 21:19:23 145.935
AUBIESAT-1 29 Jul 21:10:54 21:12:51 14° 60° (ENE) 21:14:54 437.475
DELFI C3 29 Jul 21:11:20 21:13:57 17° 69° (ENE) 21:16:35 145.870
AAUSAT CUBESAT 2 29 Jul 21:11:34 21:15:40 63° 259° (W) 21:19:47 437.432
ZACube-1 29 Jul 21:13:17 21:17:39 48° 74° (ENE) 21:22:04 437.345
UWE-3 29 Jul 21:19:07 21:23:41 88° 79° (ENE) 21:28:23 435.000/436.395/437.385
CANX-2 29 Jul 21:31:24 21:33:18 13° 268° (W) 21:35:12 2200.000
ISS 29 Jul 21:35:44 21:38:04 18° 330° (NNW) 21:40:24 145.825
CUTE 1.7 + AOD 2 29 Jul 21:45:50 21:46:13 10° 269° (W) 21:46:36 437.475
HO-68 29 Jul 21:45:52 21:51:05 21° 266° (W) 21:56:21 435.675
CUBEBUG 2 29 Jul 21:48:12 21:52:12 29° 264° (W) 21:56:19 437.445
Oscar 11 29 Jul 21:49:17 21:53:35 62° 259° (W) 21:57:54 145.826/435.025
HUMSAT D 29 Jul 22:02:32 22:06:25 34° 72° (ENE) 22:10:20 437.325/437.525
ANTELSAT 29 Jul 22:13:34 22:15:34 13° 91° (E) 22:17:31 437.575/2403.000
AIST 2 29 Jul 22:13:38 22:14:30 11° 315° (NW) 22:15:24 435.215
M-CUBED/EXP-1 PRIME 29 Jul 22:19:33 22:23:17 70° 253° (WSW) 22:27:23 437.505
PHONESAT 2.4 29 Jul 22:21:31 22:23:23 15° 216° (SW) 22:25:15 2401.200-2431.200
Cosmos 2491 29 Jul 22:24:18 22:32:53 62° 280° (W) 22:41:31 435.465 / 435.565
AUBIESAT-1 29 Jul 22:43:13 22:46:50 43° 257° (WSW) 22:50:46 437.475
DELFI C3 29 Jul 22:45:05 22:48:34 29° 263° (W) 22:52:03 145.870
AO-85 29 Jul 22:45:32 22:49:50 82° 59° (ENE) 22:53:49 145.980
PRISM 29 Jul 22:45:55 22:48:45 18° 292° (WNW) 22:51:36 437.425
FUNcube-1 29 Jul 22:48:43 22:51:28 16° 267° (W) 22:54:13 145.935
Cosmos 2504 29 Jul 22:51:45 22:59:39 67° 268° (W) 23:06:59 435.465 / 435.565
ZACube-1 29 Jul 22:51:51 22:54:09 14° 268° (W) 22:56:29 437.345
TIGRISAT 29 Jul 22:52:31 22:56:42 34° 97° (E) 23:00:46 435.000
YUBILEINY 29 Jul 23:02:57 23:08:50 20° 280° (W) 23:14:44 435.215
UNISAT 6 29 Jul 23:09:39 23:14:12 58° 100° (E) 23:18:36 437.425
50 SAT 29 Jul 23:18:53 23:21:37 20° 70° (ENE) 23:24:21 437.505
CUBEBUG 1 29 Jul 23:24:30 23:28:15 30° 71° (ENE) 23:32:03 437.445
ESTCUBE 1 29 Jul 23:26:56 23:31:17 52° 74° (ENE) 23:35:39 437.505/2401.250
VELOX 1 29 Jul 23:31:11 23:35:03 32° 71° (ENE) 23:38:57 145.980
HUMSAT D 29 Jul 23:39:17 23:42:07 17° 266° (W) 23:44:57 437.325/437.525
NANOSAT C BR1 29 Jul 23:42:10 23:44:56 17° 94° (E) 23:47:40 145.865
DUCHIFAT 1 29 Jul 23:44:56 23:47:41 17° 94° (E) 23:50:26 145.980
ANTELSAT 29 Jul 23:48:06 23:52:33 51° 286° (WNW) 23:56:53 437.575/2403.000
DX 1 30 Jul 00:04:47 00:09:00 56° 74° (ENE) 00:13:16 434.975-435.025
QB50P1 30 Jul 00:05:28 00:09:22 33° 98° (E) 00:13:13 145.935-145.965
POPSAT HIP 1 30 Jul 00:12:07 00:16:10 39° 99° (E) 00:20:10 437.405
UKube-1 30 Jul 00:12:38 00:16:49 54° 74° (ENE) 00:21:02 .
AISAT 30 Jul 00:15:48 00:20:10 71° 258° (WSW) 00:24:34 437.250
AIST 1 30 Jul 00:25:54 00:30:11 53° 81° (E) 00:34:27
TIGRISAT 30 Jul 00:29:48 00:33:06 20° 293° (WNW) 00:36:20 435.000
QB50P2 30 Jul 00:33:39 00:37:58 81° 102° (ESE) 00:42:14 145.880/145.840
POLYITAN 1 30 Jul 00:36:18 00:40:37 83° 103° (ESE) 00:44:52 437.675
SPROUT 30 Jul 00:39:50 00:44:06 89° 259° (W) 00:48:25 437.525
UNISAT 6 30 Jul 00:48:30 00:50:19 12° 296° (WNW) 00:52:07 437.425
50 SAT 30 Jul 00:52:21 00:55:07 20° 264° (W) 00:57:54 437.505
CUBEBUG 1 30 Jul 01:01:27 01:04:33 19° 265° (W) 01:07:40 437.445
ESTCUBE 1 30 Jul 01:06:36 01:08:21 12° 268° (W) 01:10:06 437.505/2401.250
VELOX 1 30 Jul 01:08:25 01:11:33 19° 265° (W) 01:14:41 145.980
GONETS M04 30 Jul 01:14:10 01:20:09 19° 67° (ENE) 01:26:05
NANOSAT C BR1 30 Jul 01:16:52 01:20:43 34° 288° (WNW) 01:24:34 145.865
SWISSCUBE 30 Jul 01:19:33 01:21:21 12° 64° (ENE) 01:23:10 437.505
DUCHIFAT 1 30 Jul 01:19:36 01:23:27 34° 288° (WNW) 01:27:17 145.980
BUGSAT 1 30 Jul 01:20:49 01:25:05 80° 284° (WNW) 01:29:19 437.445
JAS-2 30 Jul 01:20:55 01:26:20 65° 102° (ESE) 01:32:20 435.910
JUGNU 30 Jul 01:23:35 01:27:00 16° 173° (S) 01:30:23 437.505
TISAT 1 30 Jul 01:23:57 01:28:05 64° 76° (ENE) 01:32:17 437.305
Oscar 19 30 Jul 01:36:50 01:40:51 22° 95° (E) 01:44:51 437.125/150
BEESAT 30 Jul 01:39:02 01:42:11 18° 66° (ENE) 01:45:21 436.000
QB50P1 30 Jul 01:41:59 01:44:51 18° 292° (WNW) 01:47:42 145.935-145.965
Cosmos 2499 30 Jul 01:43:15 01:48:09 18° 67° (ENE) 01:52:51 435.465 / 435.565
DX 1 30 Jul 01:45:01 01:45:30 10° 268° (W) 01:46:00 434.975-435.025
Gurwin Techsat 1B 30 Jul 01:45:23 01:46:23 10° 90° (E) 01:47:23 435.225
POPSAT HIP 1 30 Jul 01:49:04 01:51:34 15° 293° (WNW) 01:54:04 437.405
UKube-1 30 Jul 01:52:15 01:53:09 11° 268° (W) 01:54:04 .
ITUPSAT 1 30 Jul 02:03:04 02:07:15 31° 70° (ENE) 02:11:27 437.325
AIST 1 30 Jul 02:06:46 02:07:13 10° 275° (W) 02:07:39
BEESAT 3 30 Jul 02:16:06 02:18:41 16° 50° (NE) 02:21:15 437.485
ISS 30 Jul 02:28:45 02:31:09 19° 30° (NNE) 02:33:33 145.825
BEESAT 2 30 Jul 02:29:14 02:31:00 13° 47° (NE) 02:32:47 435.950
SWISSCUBE 30 Jul 02:53:48 02:58:33 65° 259° (WSW) 03:03:19 437.505
CUSAT 1 30 Jul 03:02:43 03:05:53 22° 97° (E) 03:08:32 437.405
JAS-2 30 Jul 03:08:05 03:11:01 15° 295° (WNW) 03:14:03 435.910
GONETS M04 30 Jul 03:09:03 03:17:53 79° 266° (W) 03:26:42
JUGNU 30 Jul 03:11:38 03:15:15 16° 184° (S) 03:18:52 437.505
BEESAT 30 Jul 03:15:04 03:19:36 43° 261° (W) 03:24:09 436.000
Oscar 19 30 Jul 03:15:28 03:20:13 37° 289° (WNW) 03:24:57 437.125/150
ITAMSAT 1 30 Jul 03:17:47 03:22:16 29° 97° (E) 03:26:42 435.822/435.867
Gurwin Techsat 1B 30 Jul 03:21:30 03:26:50 77° 285° (WNW) 03:32:08 435.225
MOZHAYETS 4 30 Jul 03:27:52 03:31:50 29° 70° (ENE) 03:35:47
Cosmos 2499 30 Jul 03:34:28 03:42:05 71° 267° (W) 03:49:12 435.465 / 435.565
ITUPSAT 1 30 Jul 03:41:13 03:45:02 24° 264° (W) 03:48:54 437.325
AO-7 30 Jul 03:44:26 03:51:16 27° 96° (E) 03:58:02 29.400- 29.500
SRMSAT 30 Jul 03:46:26 03:49:48 16° 174° (S) 03:53:11 437.500
BEESAT 3 30 Jul 03:52:48 03:56:30 38° 246° (WSW) 04:00:10 437.485
DANDE 30 Jul 03:53:39 03:58:49 38° 97° (E) 04:02:46 436.750
ISS 30 Jul 04:04:37 04:07:43 43° 226° (SW) 04:10:49 145.825
BEESAT 2 30 Jul 04:05:15 04:09:11 56° 244° (WSW) 04:13:05 435.950
KKS-1 30 Jul 04:06:06 04:10:30 73° 75° (ENE) 04:14:57 437.445
PCSat 30 Jul 04:22:17 04:27:41 65° 62° (ENE) 04:33:02 145.827
STARS 30 Jul 04:35:51 04:40:13 76° 75° (ENE) 04:44:38 437.465
CUSAT 1 30 Jul 04:45:44 04:47:43 14° 281° (W) 04:49:30 437.405
AIST 2 30 Jul 04:56:02 04:59:15 21° 51° (NE) 05:02:29 435.215
CUBESAT XI-V 30 Jul 04:56:04 05:00:01 29° 71° (ENE) 05:03:59 437.345
ITAMSAT 1 30 Jul 04:57:12 05:01:37 29° 292° (WNW) 05:06:01 435.822/435.867
JUGNU 30 Jul 05:01:52 05:03:29 11° 194° (SSW) 05:05:06 437.505
MOZHAYETS 4 30 Jul 05:05:13 05:08:56 24° 265° (W) 05:12:39
GONETS M04 30 Jul 05:10:04 05:13:09 12° 284° (WNW) 05:16:15
HORYU 2 30 Jul 05:24:22 05:28:13 28° 97° (E) 05:32:02 437.375
O/OREOS (USA 219) 30 Jul 05:26:44 05:29:51 18° 60° (ENE) 05:32:58 437.305
SRMSAT 30 Jul 05:34:41 05:38:13 16° 184° (S) 05:41:44 437.500
AO-7 30 Jul 05:36:13 05:44:21 59° 292° (WNW) 05:52:25 29.400- 29.500
BRITE-PL 30 Jul 05:36:59 05:38:58 12° 92° (E) 05:41:01 437.365/2234.400
DANDE 30 Jul 05:38:13 05:41:23 16° 282° (WNW) 05:44:06 436.750
RS-15 30 Jul 05:51:20 06:01:54 48° 108° (ESE) 06:13:00 29.354- 29.394
PCSat 30 Jul 06:07:42 06:10:26 14° 257° (WSW) 06:13:11 145.827
STRAND 1 30 Jul 06:10:22 06:12:12 12° 62° (ENE) 06:14:04 437.568
GOMX 1 30 Jul 06:21:10 06:24:31 17° 93° (E) 06:27:55 467.674
NOAA 18 30 Jul 06:24:41 06:28:40 20° 94° (E) 06:32:37 137.9125
CUBESAT XI-V 30 Jul 06:33:44 06:37:22 23° 265° (W) 06:41:00 437.345
AIST 2 30 Jul 06:34:03 06:37:46 31° 247° (WSW) 06:41:27 435.215
Cubesat XI-IV 30 Jul 06:37:15 06:41:45 27° 96° (E) 06:46:11 437.490
LilacSat-2 30 Jul 06:53:23 06:56:59 36° 98° (E) 07:00:31 437.200
CUTE-I 30 Jul 06:59:21 07:04:27 45° 99° (E) 07:09:31 437.470
HORYU 2 30 Jul 07:01:07 07:04:36 23° 291° (WNW) 07:08:03 437.375
O/OREOS (USA 219) 30 Jul 07:05:10 07:09:23 39° 255° (WSW) 07:13:36 437.305
NOAA 15 30 Jul 07:08:15 07:13:32 76° 103° (ESE) 07:18:48 137.62
BRITE-PL 30 Jul 07:12:42 07:17:41 68° 284° (WNW) 07:23:02 437.365/2234.400
SO-50 30 Jul 07:20:52 07:25:40 63° 117° (ESE) 07:30:29 436.795
SRMSAT 30 Jul 07:25:24 07:26:35 11° 194° (SSW) 07:27:46 437.500
HO-68 30 Jul 07:30:25 07:32:54 12° 90° (E) 07:35:22 435.675
AO-7 30 Jul 07:33:30 07:35:20 11° 312° (NW) 07:37:11 29.400- 29.500
DOVE 4 30 Jul 07:33:41 07:38:39 42° 98° (E) 07:43:40 437.250
STRAND 1 30 Jul 07:45:33 07:50:42 75° 258° (WSW) 07:55:52 437.568
CUTE 1.7 + AOD 2 30 Jul 07:55:58 07:57:25 11° 92° (E) 07:58:50 437.475
GOMX 1 30 Jul 07:57:41 08:02:45 53° 286° (WNW) 08:08:01 467.674
PRISM 30 Jul 07:57:52 08:00:13 15° 67° (ENE) 08:02:34 437.425
RS-15 30 Jul 08:03:16 08:14:15 49° 310° (NW) 08:25:53 29.354- 29.394
NOAA 18 30 Jul 08:04:14 08:09:30 46° 289° (WNW) 08:14:44 137.9125
YUBILEINY 30 Jul 08:09:35 08:14:08 15° 78° (ENE) 08:18:41 435.215
Cubesat XI-IV 30 Jul 08:17:03 08:21:46 33° 291° (WNW) 08:26:28 437.490
SEEDS 30 Jul 08:27:21 08:30:24 20° 95° (E) 08:33:25 437.485
LilacSat-2 30 Jul 08:29:06 08:30:54 13° 293° (WNW) 08:32:42 437.200
COMPASS 1 30 Jul 08:33:07 08:35:35 15° 93° (E) 08:38:02 437.405
Cosmos 2491 30 Jul 08:38:06 08:46:45 59° 80° (E) 08:55:21 435.465 / 435.565
CUTE-I 30 Jul 08:40:18 08:44:08 20° 295° (WNW) 08:47:56 437.470
NOAA 15 30 Jul 08:50:32 08:52:37 12° 298° (WNW) 08:54:42 137.62
AAUSAT CUBESAT 2 30 Jul 08:57:14 09:00:32 23° 96° (E) 09:03:51 437.432
CINEMA 3 30 Jul 08:57:33 09:02:36 88° 105° (ESE) 09:07:32 145.822/145.860
SO-50 30 Jul 09:03:28 09:06:33 17° 313° (NW) 09:09:39 436.795
ZACube-1 30 Jul 09:07:09 09:08:32 11° 91° (E) 09:09:55 437.345
DOVE 4 30 Jul 09:12:04 09:16:01 22° 292° (WNW) 09:20:00 437.250
UWE-3 30 Jul 09:12:40 09:16:14 23° 94° (E) 09:19:44 435.000/436.395/437.385
HO-68 30 Jul 09:14:12 09:21:27 85° 104° (ESE) 09:28:38 435.675
CANX-2 30 Jul 09:16:38 09:20:46 58° 285° (WNW) 09:24:53 2200.000
CUTE 1.7 + AOD 2 30 Jul 09:29:26 09:33:29 47° 286° (WNW) 09:37:29 437.475
PRISM 30 Jul 09:31:27 09:35:12 35° 261° (W) 09:38:57 437.425
Cosmos 2504 30 Jul 09:34:31 09:40:27 20° 81° (E) 09:46:23 435.465 / 435.565
Oscar 11 30 Jul 09:39:44 09:43:29 28° 96° (E) 09:47:12 145.826/435.025
CUBEBUG 2 30 Jul 09:41:24 09:46:06 76° 102° (ESE) 09:50:36 437.445
TIGRISAT 30 Jul 09:48:27 09:52:03 23° 68° (ENE) 09:55:41 435.000
YUBILEINY 30 Jul 10:00:48 10:09:36 89° 282° (WNW) 10:18:29 435.215
SEEDS 30 Jul 10:02:32 10:06:04 27° 289° (WNW) 10:09:35 437.485
M-CUBED/EXP-1 PRIME 30 Jul 10:03:19 10:05:17 12° 96° (E) 10:07:14 437.505
UNISAT 6 30 Jul 10:05:16 10:09:30 36° 72° (ENE) 10:13:49 437.425
COMPASS 1 30 Jul 10:07:29 10:11:13 34° 287° (WNW) 10:14:57 437.405
RS-15 30 Jul 10:23:32 10:30:53 18° 340° (NNW) 10:38:26 29.354- 29.394
DELFI C3 30 Jul 10:25:02 10:28:45 39° 99° (E) 10:32:27 145.870
AUBIESAT-1 30 Jul 10:25:16 10:28:25 18° 98° (E) 10:31:31 437.475
AAUSAT CUBESAT 2 30 Jul 10:32:40 10:35:54 23° 290° (WNW) 10:39:07 437.432
Cosmos 2491 30 Jul 10:36:05 10:42:54 26° 277° (W) 10:49:46 435.465 / 435.565
FUNcube-1 30 Jul 10:37:49 10:42:11 61° 285° (WNW) 10:46:26 145.935
ZACube-1 30 Jul 10:40:48 10:45:08 53° 286° (WNW) 10:49:21 437.345
ANTELSAT 30 Jul 10:43:07 10:47:46 85° 257° (WSW) 10:52:30 437.575/2403.000
UWE-3 30 Jul 10:48:45 10:52:39 28° 290° (WNW) 10:56:26 435.000/436.395/437.385
QB50P1 30 Jul 10:55:49 10:58:43 18° 68° (ENE) 11:01:38 145.935-145.965
POPSAT HIP 1 30 Jul 11:02:18 11:05:29 21° 69° (ENE) 11:08:42 437.405
HO-68 30 Jul 11:04:00 11:08:14 17° 302° (WNW) 11:12:27 435.675
Oscar 11 30 Jul 11:16:13 11:19:25 21° 291° (WNW) 11:22:36 145.826/435.025
QB50P2 30 Jul 11:23:16 11:27:14 39° 73° (ENE) 11:31:14 145.880/145.840
ESTCUBE 1 30 Jul 11:23:55 11:26:11 14° 93° (E) 11:28:26 437.505/2401.250
HUMSAT D 30 Jul 11:23:57 11:28:08 83° 280° (W) 11:32:14 437.325/437.525
Cosmos 2504 30 Jul 11:23:59 11:32:51 77° 277° (W) 11:41:42 435.465 / 435.565
TIGRISAT 30 Jul 11:24:24 11:28:30 31° 263° (W) 11:32:41 435.000
POLYITAN 1 30 Jul 11:25:52 11:29:51 40° 73° (ENE) 11:33:53 437.675
JAS-2 30 Jul 11:32:22 11:36:19 19° 67° (ENE) 11:40:03 435.910
M-CUBED/EXP-1 PRIME 30 Jul 11:35:25 11:40:05 60° 290° (WNW) 11:44:38 437.505
UNISAT 6 30 Jul 11:43:00 11:46:17 19° 266° (W) 11:49:37 437.425
DX 1 30 Jul 11:57:49 11:59:36 12° 93° (E) 12:01:24 434.975-435.025
AUBIESAT-1 30 Jul 11:58:36 12:02:58 41° 292° (WNW) 12:07:14 437.475
DELFI C3 30 Jul 12:01:25 12:03:14 13° 293° (WNW) 12:05:01 145.870
YUBILEINY 30 Jul 12:02:35 12:07:35 16° 295° (WNW) 12:12:39 435.215
UKube-1 30 Jul 12:05:02 12:06:18 11° 92° (E) 12:07:35 .
NANOSAT C BR1 30 Jul 12:05:19 12:09:32 70° 259° (W) 12:13:47 145.865
BUGSAT 1 30 Jul 12:07:29 12:11:23 45° 74° (ENE) 12:15:21 437.445
DUCHIFAT 1 30 Jul 12:07:47 12:11:59 70° 259° (W) 12:16:14 145.980
AISAT 30 Jul 12:09:14 12:13:00 26° 97° (E) 12:16:45 437.250
50 SAT 30 Jul 12:22:55 12:26:15 35° 99° (E) 12:29:33 437.505
SPROUT 30 Jul 12:29:33 12:32:40 19° 94° (E) 12:35:46 437.525
QB50P1 30 Jul 12:30:24 12:34:14 32° 263° (W) 12:38:05 145.935-145.965
POPSAT HIP 1 30 Jul 12:37:26 12:41:04 28° 263° (W) 12:44:45 437.405
RS-15 30 Jul 12:43:16 12:50:42 17° 19° (NNE) 12:58:09 29.354- 29.394
Oscar 19 30 Jul 12:51:01 12:55:06 25° 68° (ENE) 12:59:12 437.125/150
CUBEBUG 1 30 Jul 12:51:16 12:55:42 86° 283° (WNW) 13:00:08 437.445
AIST 1 30 Jul 12:52:17 12:56:08 35° 91° (E) 13:00:01
AO-85 30 Jul 12:55:28 13:00:47 59° 116° (ESE) 13:05:55 145.980
ESTCUBE 1 30 Jul 12:58:54 13:03:11 46° 287° (WNW) 13:07:29 437.505/2401.250
VELOX 1 30 Jul 12:59:45 13:04:13 83° 283° (WNW) 13:08:40 145.980
QB50P2 30 Jul 13:00:52 13:03:11 14° 267° (W) 13:05:30 145.880/145.840
Gurwin Techsat 1B 30 Jul 13:02:47 13:05:34 14° 63° (ENE) 13:08:20 435.225
POLYITAN 1 30 Jul 13:03:33 13:05:49 14° 267° (W) 13:08:05 437.675
TISAT 1 30 Jul 13:12:41 13:14:29 12° 92° (E) 13:16:16 437.305
JAS-2 30 Jul 13:15:15 13:21:07 50° 259° (W) 13:26:26 435.910
Cosmos 2504 30 Jul 13:23:32 13:27:37 14° 296° (WNW) 13:31:43 435.465 / 435.565
DX 1 30 Jul 13:31:47 13:36:01 49° 286° (WNW) 13:40:14 434.975-435.025
UKube-1 30 Jul 13:38:23 13:42:37 52° 286° (WNW) 13:46:49 .
BUGSAT 1 30 Jul 13:45:31 13:46:59 12° 268° (W) 13:48:27 437.445
AISAT 30 Jul 13:45:45 13:49:20 24° 291° (WNW) 13:52:55 437.250
50 SAT 30 Jul 13:58:16 13:59:31 11° 293° (WNW) 14:00:45 437.505
SPROUT 30 Jul 14:04:49 14:08:36 30° 289° (WNW) 14:12:22 437.525
GONETS M04 30 Jul 14:12:12 14:18:41 24° 82° (E) 14:25:10
Cosmos 2499 30 Jul 14:16:15 14:21:43 18° 80° (E) 14:27:06 435.465 / 435.565
Oscar 19 30 Jul 14:29:37 14:34:13 34° 262° (W) 14:38:51 437.125/150
AIST 1 30 Jul 14:31:24 14:33:51 15° 287° (WNW) 14:36:18
ITAMSAT 1 30 Jul 14:32:49 14:37:29 34° 70° (ENE) 14:42:09 435.822/435.867
AO-85 30 Jul 14:37:45 14:41:35 20° 311° (NW) 14:45:19 145.980
Gurwin Techsat 1B 30 Jul 14:39:38 14:44:54 65° 258° (WSW) 14:50:12 435.225
AO-7 30 Jul 14:40:27 14:47:28 31° 60° (ENE) 14:54:29 29.400- 29.500
TISAT 1 30 Jul 14:46:16 14:50:20 45° 287° (WNW) 14:54:23 437.305
PHONESAT 2.4 30 Jul 14:48:52 14:51:27 25° 148° (SSE) 14:54:02 2401.200-2431.200
RS-15 30 Jul 14:55:50 15:07:36 47° 49° (NE) 15:19:11 29.354- 29.394
SWISSCUBE 30 Jul 14:57:02 15:01:29 39° 99° (E) 15:05:54 437.505
CUSAT 1 30 Jul 15:17:41 15:20:53 37° 263° (W) 15:24:56 437.405
BEESAT 30 Jul 15:17:46 15:22:30 60° 101° (ESE) 15:27:10 436.000
ITUPSAT 1 30 Jul 15:43:26 15:48:12 74° 285° (WNW) 15:52:55 437.325
SO-50 30 Jul 15:55:45 15:59:35 25° 51° (NE) 16:03:20 436.795
KKS-1 30 Jul 16:01:00 16:04:01 18° 94° (E) 16:07:01 437.445
Cosmos 2499 30 Jul 16:04:53 16:13:48 83° 276° (W) 16:22:30 435.465 / 435.565
GONETS M04 30 Jul 16:06:09 16:14:43 63° 280° (W) 16:23:22
ITAMSAT 1 30 Jul 16:12:41 16:16:56 25° 264° (W) 16:21:13 435.822/435.867
DANDE 30 Jul 16:17:20 16:19:22 18° 264° (W) 16:21:38 436.750
HORYU 2 30 Jul 16:20:05 16:23:17 19° 67° (ENE) 16:26:29 437.375
PHONESAT 2.4 30 Jul 16:24:45 16:27:47 59° 342° (NNW) 16:30:50 2401.200-2431.200
STARS 30 Jul 16:29:14 16:32:12 17° 94° (E) 16:35:07 437.465
AO-7 30 Jul 16:31:37 16:39:45 56° 257° (WSW) 16:47:58 29.400- 29.500
SWISSCUBE 30 Jul 16:35:39 16:38:57 19° 293° (WNW) 16:42:15 437.505
BEESAT 30 Jul 16:57:35 16:59:43 13° 296° (WNW) 17:01:50 436.000
